Weather History for Roatan, Honduras

Change the Weather History Date:

Sunday, October 14, 2012

  Actual Average Record
Temperature  
Mean Temperature 80 °F -  
Max Temperature 88 °F 84 °F 96 °F (1997)
Min Temperature 71 °F 75 °F 71 °F (2012)
Cooling Degree Days 14    
Growing Degree Days 30 (Base 50)    
Moisture  
Dew Point 70 °F    
Average Humidity 66    
Maximum Humidity 94    
Minimum Humidity 47    
Precipitation  
Precipitation 0.00 in - - ()
Sea Level Pressure  
Sea Level Pressure 29.91 in    
Wind  
Wind Speed 3 mph ()    
Max Wind Speed 8 mph    
Max Gust Speed -    
Visibility 7.0 miles    
Events      
Averages and records for this station are not official NWS values.
T = Trace of Precipitation, MM = Missing Value Source: Averaged Metar Reports

Daily Weather History Graph

Daily Weather History Graph

Search for Another Location

Airport:

Trip Planner

Search our weather history database for the weather conditions in past years. The results will help you decide how hot, cold, wet, or windy it might be!

Date:

Astronomy

Oct. 14, 2012 Rise Set
Actual Time 5:38 AM CST 5:25 PM CST
Civil Twilight 5:16 AM CST 5:47 PM CST
Nautical Twilight 4:51 AM CST 6:12 PM CST
Astronomical Twilight 4:26 AM CST 6:37 PM CST
Moon 4:39 AM CST (10/14) 4:46 PM CST (10/14)
Length of Visible Light 12h 30m
Length of Day
11h 46m
Waning Crescent, 1% of the Moon is Illuminated
Oct 14
Waning Crescent
Oct 15
New
Oct 21
First Quarter
Oct 29
Full
Nov 6
Last Quarter

Hourly Weather History & Observations

Time (CST) Temp. Heat Index Dew Point Humidity Pressure Visibility Wind Dir Wind Speed Gust Speed Precip Events Conditions
6:00 AM 74 °F - 71 °F 89% 29.92 in 7 mi North 3.5 mph - -   Haze
6:00 AM 75.2 °F - 71.6 °F 89% 29.92 in 6.2 mi North 3.5 mph - N/A   Mostly Cloudy
7:00 AM 77.0 °F - 75.2 °F 94% 29.92 in 6.2 mi Calm Calm - N/A   Scattered Clouds
8:00 AM 82.4 °F 87.2 °F 71.6 °F 70% 29.95 in 6.2 mi South 3.5 mph - N/A   Scattered Clouds
9:00 AM 84 °F - 72 °F 59% 29.96 in 10 mi North 4.6 mph - -   Haze
9:00 AM 84.2 °F 89.6 °F 71.6 °F 66% 29.95 in 6.2 mi North 4.6 mph - N/A   Scattered Clouds
10:00 AM 84.2 °F 88.4 °F 69.8 °F 62% 29.95 in 6.2 mi WNW 5.8 mph - N/A   Scattered Clouds
11:00 AM 84.2 °F 87.3 °F 68.0 °F 58% 29.95 in 6.2 mi North 3.5 mph - N/A   Scattered Clouds
12:00 PM 85 °F - 69 °F 50% 29.93 in 10 mi West 4.6 mph - -   Haze
12:00 PM 86.0 °F 90.4 °F 69.8 °F 58% 29.92 in 6.2 mi West 4.6 mph - N/A   Scattered Clouds
1:00 PM 86.0 °F 90.4 °F 69.8 °F 58% 29.89 in 6.2 mi NNW 8.1 mph - N/A   Scattered Clouds
2:00 PM 86.0 °F 90.4 °F 69.8 °F 58% 29.86 in 6.2 mi NNW 5.8 mph - N/A   Scattered Clouds
3:00 PM 86 °F - 69 °F 47% 29.91 in 10 mi NNW 6.9 mph - -   Haze
3:00 PM 86.0 °F 89.4 °F 68.0 °F 55% 29.86 in 6.2 mi NNW 6.9 mph - N/A   Scattered Clouds
4:00 PM 86.0 °F 89.4 °F 68.0 °F 55% 29.86 in 6.2 mi NW 5.8 mph - N/A   Scattered Clouds
5:00 PM 84.2 °F 87.3 °F 68.0 °F 58% 29.86 in 6.2 mi NW 3.5 mph - N/A   Partly Cloudy
6:00 PM 80 °F - 70 °F 64% 29.89 in 10 mi NW 2.3 mph - -   Haze
6:00 PM 80.6 °F 83.9 °F 69.8 °F 70% 29.89 in 6.2 mi NW 2.3 mph - N/A   Partly Cloudy
7:00 PM 77.0 °F - 69.8 °F 78% 29.89 in 6.2 mi NW 2.3 mph - N/A   Partly Cloudy
8:00 PM 78.8 °F - 71.6 °F 78% 29.92 in 6.2 mi NW 2.3 mph - N/A   Scattered Clouds